Charlottetown, Prince Edward Island

11:18 PM ADT on August 25, 2016 (GMT -0300)
Charlottetown

Weather History for CYYG - March, 2014

Change the Weather History Date:

Sunday, March 2, 2014

  Actual Average Record
Temperature  
Mean Temperature 20 °F -  
Max Temperature 29 °F 34 °F 48 °F (1999)
Min Temperature 10 °F 20 °F -7 °F (2001)
Degree Days  
Heating Degree Days 44    
Moisture  
Dew Point 18 °F    
Average Humidity 82    
Maximum Humidity 93    
Minimum Humidity 62    
Precipitation  
Precipitation 0.03 in 0.12 in - ()
Sea Level Pressure  
Sea Level Pressure 29.98 in    
Wind  
Wind Speed 10 mph ()    
Max Wind Speed 16 mph    
Max Gust Speed 21 mph    
Visibility 7.2 miles    
Events Snow    
Averages and records for this station are not official NWS values.
T = Trace of Precipitation, MM = Missing Value Source: Averaged Metar Reports

Daily Weather History Graph

Daily Weather History Graph

Search for Another Location

Airport or City:

Trip Planner

Search our weather history database for the weather conditions in past years. The results will help you decide how hot, cold, wet, or windy it might be!

Date:

Astronomy

Mar. 02, 2014 Rise Set
Actual Time 6:49 AM AST 6:00 PM AST
Civil Twilight 6:19 AM AST 6:30 PM AST
Nautical Twilight 5:45 AM AST 7:05 PM AST
Astronomical Twilight 5:10 AM AST 7:39 PM AST
Moon 7:11 AM AST (3/2) 7:59 PM AST (3/2)
Length of Visible Light 12h 10m
Length of Day
11h 10m
New Moon, 2% of the Moon is Illuminated
Mar 2
New Moon
Mar 8
First Quarter
Mar 16
Full
Mar 23
Last Quarter
Mar 30
New

Hourly Weather History & Observations

Time (AST) Temp. Windchill Dew Point Humidity Pressure Visibility Wind Dir Wind Speed Gust Speed Precip Events Conditions
12:00 AM 23.0 °F 10.1 °F 17.6 °F 80% 30.12 in 15.0 mi SSE 15.0 mph - N/A   Overcast
12:23 AM 23.0 °F 11.7 °F 17.6 °F 80% 30.11 in 15.0 mi SSE 11.5 mph 18.4 mph N/A   Overcast
1:00 AM 23.0 °F 13.1 °F 17.6 °F 80% 30.11 in 15.0 mi SSE 9.2 mph - N/A   Overcast
2:00 AM 25 °F - 21 °F 77% 30.08 in 15 mi South 11.5 mph - -   Partly Cloudy
2:00 AM 24.8 °F 13.4 °F 21.2 °F 86% 30.08 in 15.0 mi South 12.7 mph - N/A   Overcast
3:00 AM 26.6 °F 15.2 °F 23.0 °F 86% 30.02 in 15.0 mi South 13.8 mph 20.7 mph N/A   Overcast
3:49 AM 26.6 °F 15.2 °F 23.0 °F 86% 30.00 in 5.0 mi SSW 13.8 mph - N/A Snow Light Snow Showers
4:00 AM 26.6 °F 16.2 °F 23.0 °F 86% 30.00 in 6.0 mi South 11.5 mph - N/A Snow Light Snow Showers
5:00 AM 28.4 °F 19.7 °F 23.0 °F 80% 29.98 in 5.0 mi SSW 9.2 mph - N/A Snow Light Snow Showers
6:00 AM 26.6 °F 18.2 °F 24.8 °F 93% 29.96 in 2.0 mi SSW 8.1 mph - N/A Snow Light Snow Showers
6:22 AM 26.6 °F 18.2 °F 24.8 °F 93% 29.96 in 6.0 mi SSW 8.1 mph - N/A Snow Light Snow Showers
7:00 AM 26.6 °F 20.0 °F 24.8 °F 93% 29.96 in 5.0 mi SSW 5.8 mph - N/A Snow Light Snow Showers
7:10 AM 26.6 °F 21.2 °F 24.8 °F 93% 29.96 in 2.0 mi SSW 4.6 mph - N/A Snow Light Snow Showers
8:00 AM 28 °F - 25 °F 85% 29.96 in 3 mi SW 6.9 mph - - Snow Light Snow Showers
8:00 AM 28.4 °F 21.2 °F 24.8 °F 86% 29.96 in 3.0 mi SW 6.9 mph - N/A Snow Light Snow Showers
8:36 AM 28.4 °F 21.2 °F 24.8 °F 86% 29.96 in 3.0 mi SW 6.9 mph - N/A Snow Light Snow Showers
9:00 AM 28.4 °F 21.2 °F 26.6 °F 93% 29.96 in 2.5 mi WSW 6.9 mph - N/A Snow Light Snow Showers
10:00 AM 28.4 °F 19.7 °F 24.8 °F 86% 29.95 in 4.0 mi West 9.2 mph - N/A Snow Light Snow Showers
11:00 AM 28.4 °F 22.2 °F 24.8 °F 86% 29.95 in 6.0 mi West 5.8 mph - N/A Snow Light Snow Showers
11:17 AM 26.6 °F 16.8 °F 23.0 °F 86% 29.95 in 8.0 mi NNW 10.4 mph 19.6 mph N/A Snow Light Snow Showers
12:00 PM 28.4 °F 21.2 °F 23.0 °F 80% 29.95 in 6.0 mi WNW 6.9 mph - N/A Snow Light Snow Showers
12:36 PM 28.4 °F 18.5 °F 21.2 °F 74% 29.93 in 2.5 mi WNW 11.5 mph - N/A Snow Light Snow Showers
12:50 PM 26.6 °F 15.7 °F 23.0 °F 86% 29.94 in 1.5 mi NNW 12.7 mph 20.7 mph N/A Snow Light Snow Showers
1:00 PM 24.8 °F 13.4 °F 21.2 °F 86% 29.94 in 2.0 mi NW 12.7 mph - N/A Snow Light Snow Showers
1:43 PM 23.0 °F 11.1 °F 19.4 °F 86% 29.93 in 3.0 mi North 12.7 mph 20.7 mph N/A Snow Light Snow Showers
2:00 PM 23 °F - 17 °F 71% 29.93 in 3 mi North 12.7 mph - - Snow Light Snow Showers
2:00 PM 23.0 °F 11.7 °F 17.6 °F 80% 29.93 in 3.0 mi North 11.5 mph 20.7 mph N/A Snow Light Snow Showers
3:00 PM 23.0 °F 11.7 °F 15.8 °F 74% 29.94 in 3.0 mi North 11.5 mph 18.4 mph N/A Snow Light Snow Showers
4:00 PM 21.2 °F 9.5 °F 12.2 °F 68% 29.94 in 4.0 mi North 11.5 mph 19.6 mph N/A Snow Light Snow Showers
4:51 PM 19.4 °F 6.0 °F 15.8 °F 86% 29.94 in 2.5 mi North 13.8 mph - N/A Snow Light Snow Showers
5:00 PM 19.4 °F 5.0 °F 15.8 °F 86% 29.94 in 2.5 mi NE 16.1 mph - N/A Snow Light Snow Showers
5:17 PM 19.4 °F 6.0 °F 15.8 °F 86% 29.94 in 4.0 mi NNE 13.8 mph - N/A Snow Light Snow Showers
5:36 PM 17.6 °F 4.3 °F 15.8 °F 93% 29.94 in 2.0 mi NE 12.7 mph 20.7 mph N/A Snow Light Snow Showers
6:00 PM 15.8 °F 0.3 °F 12.2 °F 86% 29.95 in 4.0 mi NNE 16.1 mph - N/A Snow Light Snow Showers
7:00 PM 14.0 °F 2.9 °F 10.4 °F 86% 29.97 in 10.0 mi NNE 8.1 mph - N/A Snow Light Snow Showers
8:00 PM 15 °F - 8 °F 62% 29.97 in 15 mi NNE 6.9 mph - - Snow Light Snow Showers
8:00 PM 14.0 °F 3.9 °F 6.8 °F 73% 29.97 in 15.0 mi NE 6.9 mph - N/A Snow Light Snow Showers
8:37 PM 14.0 °F 3.9 °F 8.6 °F 79% 29.97 in 15.0 mi NE 6.9 mph - N/A   Overcast
9:00 PM 14.0 °F 3.9 °F 8.6 °F 79% 29.98 in 15.0 mi NNE 6.9 mph - N/A   Overcast
10:00 PM 12.2 °F -0.2 °F 5.0 °F 73% 29.99 in 15.0 mi NNE 9.2 mph - N/A   Overcast
11:00 PM 10.4 °F -1.5 °F 1.4 °F 67% 29.98 in 15.0 mi NE 8.1 mph - N/A   Mostly Cloudy